Aeroporto :
LOGIN :

Iscrizione | Disclaimer

   EN    FR    IT 

 










Sommario :    VFR   VFR Marginale   IFR   IFR Intensivo   IFR Molto Intensivo
Visibilità : 
Base nubi : 
>= 8 km
>= 3000ft
5 / 8 km
1000 / 3000 ft
1500m / 5 km
500 / 1000 ft
800 / 1500m
200 / 500 ft
< 800m
< 200 ft
Simboli :   Temporali  Nebbia  Neve Forte  Precipitazioni Forti  Vento > 20 kt
SIGMETs :   Varie  Temporali  Ghiacco  Turbolenza  Onda orograficha  Ceneri Vulcaniche






- Altitudine del aeroporto : 289 ft


LIRG - Guidonia

ULTIMO METAR :
  • 191155Z 11007KT 9999 SCT026 14/11 Q1014 RMK BKN SCT090 MON NE CIME INC NC VIS MIN 9999 BLU

METARs OBSOLETI :
  • 191055Z 14007KT 9999 FEW025 SCT030 14/10 Q1015 RMK OVC MON NE CIME INC NC VIS MIN 9999 BLU
  • 190955Z 14004KT 9999 -RA FEW020 BKN030 13/12 Q1015 RMK OVC MON NE CIME INC NC VIS MIN 9999 BLU

TAF TAF LIRG
Valido dal 19 a 12 ore il 19 a 21 ore UTC


191100Z 1912/1921 14015KT 9999 FEW020 SCT030
PROB40
TEMPO 1912/1915 5000 SHRA FEW020CB BKN030



MetMap, La meteo Aeronautica in un colpo d'occhio ! - Copyright ORBIFLY Dicembre 2007 - Disclaimer

ORBIFLY MET'MAP TEAM :

Programmazione e sviluppo : Alexandra Zaïnal
Concezione e sviluppo : Baudouin d'Aumeries
Co-Programmazione e sviluppo : Marc-Olivier Méhu
Supporto tecnico e logistico : Manuel Goepfert
Aiuto per la traduzione : Arnaldo La Scala

Contatto : metmap@orbifly.com




FONTI E CREDITI :

   NOAA